Showing default

GONETS D1 5, 24729

Orbit data source: Space-Track

GONETS D1 5, 24729 is a payload satellite owned by Gonets (CIS) in LEO that was launched on Fri, 14 Feb 1997 UTC via a TSIKLON-3 launch vehicle from the Plesetsk Missile And Space Complex (PKMTR). Payload-class satellites include a variety of spacecraft equipped with specific instruments for various scientific and technological missions. These include communications satellites like Starlink; space stations such as the ISS; scientific satellites like the Hubble; Earth observation satellites from companies like Planet Labs, Umbra, and HawkEye 360; GPS; miniature CubeSats for education and research; and military/defense satellites.

Loading next visibility...
Identifier
24729, 1997-006E
Orbit
LEO
Country
Flag of CISCIS
Related business
Manufacturer
NPO PM
Mission
Non-operational Civil Communications
Bus & Motor
STRELA-3, Unknown motor
Mass
225 kg wet, 225 kg dry
Launch date (UTC)
1997-02-14 (29 years ago)
Launch vehicle
TSIKLON-3
Launch site
Plesetsk Missile And Space Complex (PKMTR)
Object type
Payload
Rocket body
Debris
Shape & HBR
Cyl + 1 Ant, 3.5 m
Radar Cross Section
1.798 m², Medium (>0.1 m² and < 1m²)

Expand to show TLE details & history
Last TLE update: 15 hours ago

TLE from 15 hours ago
0 GONETS D1 5
1 24729U 97006E   26127.91690089  .00000038  00000-0  15180-3 0  9995
2 24729  82.5965 268.2235 0003822 356.1569 125.4349 12.62986489347376
Epoch: 2026-05-07T22:00Z
TLE epoch observation values (Epoch: 2026-05-07T22:00:20.236Z)
Latitude
57.6956°
Longitude
-119.41691°
Altitude
1,422.023 km
Speed
7.154 km/s
True Right ascension
05h 05m 41s
True Declination
57° 33' 12"
Sunlit
Object was in daylight at epoch
Visualization orbit readout
Latitude
Unknown
Longitude
Unknown
Altitude
Unknown
Speed
Unknown
Apparent Right ascension
Unknown
Apparent Declination
Unknown
Sunlit
N/A
Visualization observer readout
Local Sidereal Time
20:51:33
Azimuth
Unknown
Elevation
Unknown
Doppler factor
Unknown
Orbital elements
Apogee altitude
1,410.937 km
Perigee altitude
1,404.985 km
Semi-major axis
7,786.098 km
Eccentricity
0.00038
Inclination
82.5965°
RAAN
268.2235°
Arg. of periapsis
356.1569°
True anomaly
125.47057°
Mean anomaly
125.4349°
Eccentric anomaly
125.45274°
Mean motion
3.1591 °/min
Orbital period
113.96 mins
BSTAR
0.0001518
Loading maneuver chart data...
Computing Atmospheric mass density...
Loading historical data...
Loading historical data...
Loading historical data...
Loading historical data...
Loading historical data...
Loading historical data...
Loading historical data...

Documentation

Showing up to 5 results
|